Hamilton Island, Australia

5:53 PM AEST on May 21, 2018 (GMT +1000)
Hamilton Island

Weather History for YBHM - December, 2012

Change the Weather History Date:

Thursday, December 13, 2012

  Actual Average Record
Temperature  
Mean Temperature 77 °F -  
Max Temperature 83 °F - - ()
Min Temperature 71 °F - - ()
Cooling Degree Days 12    
Growing Degree Days 27 (Base 50)    
Moisture  
Dew Point 67 °F    
Average Humidity 69    
Maximum Humidity 89    
Minimum Humidity 49    
Precipitation  
Precipitation 0.00 in - - ()
Sea Level Pressure  
Sea Level Pressure 29.95 in    
Wind  
Wind Speed 26 mph ()    
Max Wind Speed 32 mph    
Max Gust Speed 45 mph    
T = Trace of Precipitation, MM = Missing Value Source: Averaged Metar Reports

Daily Weather History Graph

Daily Weather History Graph

Search for Another Location

Airport or City:

Astronomy

Dec. 13, 2012 Rise Set
Actual Time 5:17 AM AEST 6:39 PM AEST
Civil Twilight 4:53 AM AEST 7:03 PM AEST
Nautical Twilight 4:24 AM AEST 7:32 PM AEST
Astronomical Twilight 3:53 AM AEST 8:03 PM AEST
Moon 4:52 AM AEST (12/13) 6:30 PM AEST (12/13)
Length of Visible Light 14h 10m
Length of Day
13h 21m
Waning Crescent, 0% of the Moon is Illuminated
Dec 13
Waning Crescent
Dec 13
New
Dec 20
First Quarter
Dec 28
Full
Jan 5
Last Quarter

Hourly Weather History & Observations

Time (AEST) Temp. Heat Index Dew Point Humidity Pressure Visibility Wind Dir Wind Speed Gust Speed Precip Events Conditions
12:00 AM 77 °F - 69 °F 70% 29.94 in - SE 28.8 mph - -  
12:00 AM 77.0 °F - 69.8 °F 78% 29.95 in - SE 28.8 mph - N/A   Unknown
12:30 AM 77.0 °F - 69.8 °F 78% 29.92 in - ESE 28.8 mph - N/A   Unknown
12:43 AM 77.0 °F - 69.8 °F 78% 29.92 in - ESE 29.9 mph 44.9 mph N/A   Unknown
1:00 AM 75.2 °F - 71.6 °F 89% 29.92 in - SE 28.8 mph - N/A   Unknown
1:37 AM 75.2 °F - 69.8 °F 83% 29.92 in - ESE 27.6 mph 39.1 mph N/A   Unknown
2:00 AM 77.0 °F - 69.8 °F 78% 29.92 in - ESE 29.9 mph - N/A   Unknown
2:30 AM 77.0 °F - 68.0 °F 74% 29.92 in - ESE 29.9 mph - N/A   Unknown
3:00 AM 74 °F - 66 °F 70% 29.91 in - ESE 32.2 mph - -  
3:00 AM 75.2 °F - 66.2 °F 73% 29.92 in - ESE 32.2 mph - N/A   Unknown
3:30 AM 77.0 °F - 68.0 °F 74% 29.92 in - ESE 28.8 mph - N/A   Unknown
4:00 AM 75.2 °F - 68.0 °F 78% 29.89 in - ESE 29.9 mph - N/A   Unknown
4:30 AM 77.0 °F - 69.8 °F 78% 29.89 in - SE 29.9 mph - N/A   Unknown
5:00 AM 77.0 °F - 69.8 °F 78% 29.92 in - SE 28.8 mph - N/A   Unknown
5:30 AM 77.0 °F - 69.8 °F 78% 29.92 in - ESE 32.2 mph - N/A   Unknown
6:00 AM 77 °F - 69 °F 71% 29.93 in - ESE 31.1 mph - -  
6:00 AM 77.0 °F - 69.8 °F 78% 29.92 in - ESE 31.1 mph - N/A   Unknown
6:30 AM 77.0 °F - 69.8 °F 78% 29.95 in - ESE 31.1 mph - N/A   Unknown
7:00 AM 77.0 °F - 66.2 °F 69% 29.95 in - ESE 32.2 mph - N/A   Unknown
7:59 AM 75.2 °F - 71.6 °F 89% 29.98 in - SE 31.1 mph 42.6 mph N/A   Unknown
8:00 AM 75.2 °F - 71.6 °F 89% 29.98 in - SE 28.8 mph - N/A   Unknown
8:30 AM 78.8 °F - 68.0 °F 69% 29.98 in - SE 29.9 mph - N/A   Unknown
9:00 AM 80 °F - 67 °F 55% 29.98 in - ESE 31.1 mph - -  
9:00 AM 80.6 °F 82.7 °F 66.2 °F 61% 29.98 in - ESE 31.1 mph - N/A   Unknown
9:30 AM 78.8 °F - 66.2 °F 65% 29.98 in - ESE 31.1 mph - N/A   Unknown
10:00 AM 82.4 °F 85.4 °F 68.0 °F 62% 29.98 in - SE 28.8 mph - N/A   Unknown
10:30 AM 78.8 °F - 64.4 °F 61% 29.98 in - ESE 28.8 mph - N/A   Unknown
11:00 AM 80.6 °F 82.7 °F 66.2 °F 61% 29.98 in - ESE 27.6 mph - N/A   Unknown
11:30 AM 80.6 °F 82.7 °F 66.2 °F 61% 29.98 in - SE 25.3 mph - N/A   Unknown
12:00 PM 83 °F - 67 °F 49% 29.97 in - SE 29.9 mph - -  
12:00 PM 82.4 °F 84.6 °F 66.2 °F 58% 29.98 in - SE 29.9 mph - N/A   Unknown
12:30 PM 82.4 °F 83.9 °F 64.4 °F 54% 29.98 in - SE 28.8 mph - N/A   Unknown
1:00 PM 82.4 °F 84.6 °F 66.2 °F 58% 29.95 in - SE 28.8 mph - N/A   Unknown
1:30 PM 80.6 °F 82.7 °F 66.2 °F 61% 29.95 in - ESE 29.9 mph - N/A   Unknown
2:00 PM 82.4 °F 84.6 °F 66.2 °F 58% 29.95 in - ESE 28.8 mph - N/A   Unknown
2:30 PM 80.6 °F 82.7 °F 66.2 °F 61% 29.95 in - ESE 29.9 mph - N/A   Unknown
3:00 PM 80 °F - 66 °F 54% 29.93 in - ESE 27.6 mph - -  
3:00 PM 80.6 °F 82.7 °F 66.2 °F 61% 29.92 in - ESE 27.6 mph - N/A   Unknown
3:30 PM 78.8 °F - 66.2 °F 65% 29.92 in - ESE 27.6 mph - N/A   Unknown
4:00 PM 78.8 °F - 66.2 °F 65% 29.92 in - ESE 25.3 mph - N/A   Unknown
4:30 PM 78.8 °F - 66.2 °F 65% 29.92 in - ESE 24.2 mph - N/A   Unknown
5:00 PM 78.8 °F - 66.2 °F 65% 29.92 in - ESE 26.5 mph - N/A   Unknown
5:30 PM 78.8 °F - 64.4 °F 61% 29.92 in - ESE 23.0 mph - N/A   Unknown
6:00 PM 78 °F - 64 °F 53% 29.93 in - ESE 24.2 mph - -  
6:00 PM 77.0 °F - 64.4 °F 65% 29.92 in - ESE 24.2 mph - N/A   Unknown
6:30 PM 77.0 °F - 64.4 °F 65% 29.95 in - ESE 27.6 mph - N/A   Unknown
7:00 PM 77.0 °F - 66.2 °F 69% 29.95 in - ESE 27.6 mph - N/A   Unknown
7:30 PM 77.0 °F - 66.2 °F 69% 29.95 in - ESE 24.2 mph - N/A   Unknown
8:00 PM 77.0 °F - 68.0 °F 74% 29.95 in - ESE 20.7 mph - N/A   Unknown
8:30 PM 77.0 °F - 68.0 °F 74% 29.95 in - ESE 20.7 mph - N/A   Unknown
9:00 PM 77 °F - 68 °F 66% 29.98 in - ESE 19.6 mph - -  
9:00 PM 77.0 °F - 68.0 °F 74% 29.98 in - ESE 19.6 mph - N/A   Unknown
9:30 PM 77.0 °F - 66.2 °F 69% 29.98 in - ESE 19.6 mph - N/A   Unknown
10:00 PM 77.0 °F - 68.0 °F 74% 29.98 in - ESE 17.3 mph - N/A   Unknown
10:30 PM 77.0 °F - 68.0 °F 74% 29.98 in - ESE 20.7 mph - N/A   Unknown
11:00 PM 77.0 °F - 68.0 °F 74% 29.98 in - ESE 21.9 mph - N/A   Unknown
11:30 PM 77.0 °F - 66.2 °F 69% 29.98 in - ESE 21.9 mph - N/A   Unknown